Regional Weather Roundup
Issued by NWS Midland/Odessa, TX

Skip options and go directly to product.
Home | Oldest Version | Previous Version | Current Version | All | Text Only | Save Text | Print | Product List | Glossary Off

Skip product version selection by date and time.   

440
ASUS44 KMAF 262210
RWRMAF
MIDLAND AREA WEATHER ROUNDUP
NATIONAL WEATHER SERVICE MIDLAND TX
500 PM CDT SUN APR 26 2015

...IN SOUTHWEST TEXAS AND SOUTHEAST NEW MEXICO...

CITY           SKY/WX    TMP DP  RH WIND       PRES   REMARKS
ALPINE         SUNNY     80  22  11 W16G29    29.71F
ANDREWS        FAIR      76  27  16 NW21G28   29.62S
ARTESIA        PTSUNNY   66  30  26 W25G36    29.68F
BIG SPRING     PTSUNNY   86  24  10 SW17G24   29.56F
CARLSBAD       MOSUNNY   71  24  17 W29G39    29.65F
DRYDEN           N/A     95  18   6 SW22G31   29.51F
FORT STOCKTON  MOSUNNY   83  19   9 W21G31    29.59F
GUAD PASS      MOSUNNY   59  27  29 W38G58    29.74F
HOBBS          PTSUNNY   70  32  24 W18G28    29.68F
MARFA          PTSUNNY   68  30  24 NW30G39   29.74R
MIDLAND AIRPK  PTSUNNY   82  25  12 SW15G33   29.57F
MIDLAND INTL   CLOUDY    83  28  13 SW12      29.56F
ODESSA         CLOUDY    82  21  10 SW15G35   29.57F
PECOS          PTSUNNY   73  32  22 W30G44    29.65R
PRESIDIO       FAIR      87  31  13 NW33G45   29.56R
SEMINOLE       CLOUDY    70  30  23 N17G25    29.66F
SNYDER         PTSUNNY   79  55  43 CALM      29.55F
WINK           PTSUNNY   77  27  15 W29G44    29.60R
$$
...OTHER STATIONS IN TEXAS...

CITY           SKY/WX    TMP DP  RH WIND       PRES   REMARKS
ABILENE        CLOUDY    78  61  55 E20       29.51F
AMARILLO       CLOUDY    68  34  28 S15G21    29.67R THUNDER
AUSTIN         PTSUNNY   84  69  60 SE17      29.57F
BROWNSVILLE    PTSUNNY   87  78  74 SE15      29.56F HAZE    HX 100
CORPUS CHRISTI PTSUNNY   81  77  88 SE14      29.57F
DALLAS FTW     CLOUDY    79  61  53 W7        29.63S
DEL RIO        SUNNY     96  47  18 SE16      29.47F
EL PASO        CLOUDY    62  34  35 W24G38    29.78F
HOUSTON INT    PTSUNNY   83  72  69 SE15G21   29.62F
LUBBOCK        CLOUDY    75  26  16 W23G30    29.62R
SAN ANGELO     SUNNY     93  32  11 SW15G22   29.50F
SAN ANTONIO    PTSUNNY   85  72  65 SE18G25   29.56F
WACO           PTSUNNY   81  67  62 E16       29.58F
WICHITA FALLS  NOT AVBL
$$
...OTHER LOCATIONS IN NEW MEXICO...

CITY           SKY/WX    TMP DP  RH WIND       PRES   REMARKS
ALAMAGORDO     MOSUNNY   59  34  38 S12       29.75F
ALBUQUERQUE    LGT RAIN  48  42  80 NW5       29.76S
CANNON AFB     NOT AVBL
CLOVIS         CLOUDY    64  27  24 SE13      29.71F
HOLLOMAN AFB   NOT AVBL
ROSWELL        PTSUNNY   70  27  20 W13G28    29.62F
RUIDOSO        PTSUNNY   46  30  53 SW22G30   29.76F WCI  38
SANTA FE       CLOUDY    46  36  68 SE8       29.74F
TRUTH OR CONSE LGT RAIN  54  38  54 N15G26    29.71S
TUCUMCARI      CLOUDY    70  28  21 S14G23    29.66F
$$

USA.gov is the U.S. government's official web portal to all federal, state and local government web resources and services.